User: anonymous   Login
Location: Poughquag
(41.6090°N, 73.6820°W)
Time: 08:27:07
(UTC-04:00)
Language:

Courier 1B Rocket - Orbit

View from above orbital plane
View from above orbital plane
View from above satellite
View from above satellite

Ground track
Ground track

The orbit data is extracted from the following two-line orbital elements,

1    59U 60013B   20293.72138549 +.00000109 +00000-0 +23829-4 0  9997
2    59 028.2499 299.8685 0189039 249.1759 108.8443 13.52978794963959
Epoch (UTC): 19 October 2020 17:18:47
Eccentricity: 0.0189039
inclination: 28.2499°
perigee height: 920 km
apogee height: 1202 km
right ascension of ascending node: 299.8685°
argument of perigee: 249.1759°
revolutions per day: 13.52978794
mean anomaly at epoch: 108.8443°
orbit number at epoch: 96395

The dashed part of the orbit path shows where the satellite is in the earth's shadow,  

DLR